AUA72H LOWW-LYBE

Flight info

Callsign AUA72H
Flight time 0h 42m
Altitude 33000
Route ARSIN DCT NALOX DCT BABIT DCT RIGMU
Aircraft A320/M-SDE3FGHIRWY/LB1

Departure

Time 2026-04-21 12:49
Airport Vienna International Airport (LOWW)

Arrival

Time 2026-04-21 13:32
Airport Belgrade Nikola Tesla Airport (LYBE)
Time Latitude Longitude Altitude Speed Heading
2026-04-21 12:25 48.11862 16.56877 626 ft 0 kts 206°
2026-04-21 12:37 48.11863 16.56877 610 ft 0 kts 206°
2026-04-21 12:37 48.11862 16.56877 610 ft 0 kts 206°
2026-04-21 12:37 48.11863 16.56877 610 ft 0 kts 206°
2026-04-21 12:40 48.11884 16.56892 617 ft 4 kts 200°
2026-04-21 12:40 48.11910 16.56903 613 ft 4 kts 184°
2026-04-21 12:40 48.11933 16.56897 625 ft 4 kts 131°
2026-04-21 12:40 48.11937 16.56889 621 ft 0 kts 116°
2026-04-21 12:42 48.11937 16.56891 621 ft 1 kts 116°
2026-04-21 12:42 48.11928 16.56920 623 ft 5 kts 116°
2026-04-21 12:43 48.11907 16.56982 613 ft 8 kts 116°
2026-04-21 12:43 48.11880 16.57066 617 ft 9 kts 116°
2026-04-21 12:43 48.11855 16.57180 610 ft 13 kts 92°
2026-04-21 12:43 48.11829 16.57298 620 ft 11 kts 116°
2026-04-21 12:44 48.11809 16.57402 619 ft 10 kts 85°
2026-04-21 12:44 48.11780 16.57481 613 ft 12 kts 154°
2026-04-21 12:44 48.11672 16.57529 621 ft 21 kts 164°
2026-04-21 12:44 48.11512 16.57596 613 ft 26 kts 165°
2026-04-21 12:45 48.11328 16.57674 621 ft 28 kts 164°
2026-04-21 12:45 48.11137 16.57756 619 ft 29 kts 164°
2026-04-21 12:45 48.10942 16.57838 620 ft 29 kts 164°
2026-04-21 12:45 48.10746 16.57919 618 ft 29 kts 163°
2026-04-21 12:46 48.10552 16.58002 621 ft 29 kts 164°
2026-04-21 12:46 48.10366 16.58080 621 ft 27 kts 164°
2026-04-21 12:46 48.10181 16.58158 616 ft 28 kts 164°
2026-04-21 12:46 48.09990 16.58239 610 ft 29 kts 164°
2026-04-21 12:47 48.09807 16.58316 617 ft 26 kts 164°
2026-04-21 12:47 48.09670 16.58378 614 ft 14 kts 159°
2026-04-21 12:47 48.09633 16.58486 616 ft 12 kts 82°
2026-04-21 12:47 48.09684 16.58556 612 ft 11 kts 14°
2026-04-21 12:48 48.09790 16.58584 610 ft 19 kts
2026-04-21 12:48 48.09928 16.58614 616 ft 18 kts
2026-04-21 12:48 48.10016 16.58646 623 ft 11 kts 353°
2026-04-21 12:48 48.10181 16.58576 614 ft 54 kts 345°
2026-04-21 12:49 48.10767 16.58329 619 ft 117 kts 344°
2026-04-21 12:49 48.11684 16.57947 911 ft 140 kts 342°
2026-04-21 12:49 48.12593 16.57561 1827 ft 133 kts 343°
2026-04-21 12:49 48.13509 16.57167 2352 ft 146 kts 344°
2026-04-21 12:50 48.14433 16.56343 2669 ft 171 kts 308°
2026-04-21 12:50 48.14717 16.54501 2967 ft 203 kts 263°
2026-04-21 12:50 48.13950 16.52558 3283 ft 236 kts 225°
2026-04-21 12:50 48.12564 16.51007 3710 ft 262 kts 213°
2026-04-21 12:51 48.10932 16.49604 4372 ft 276 kts 209°
2026-04-21 12:51 48.09225 16.48238 5294 ft 280 kts 209°
2026-04-21 12:51 48.07347 16.47391 6222 ft 286 kts 183°
2026-04-21 12:51 48.05358 16.47625 7181 ft 290 kts 171°
2026-04-21 12:52 48.03344 16.48032 8092 ft 295 kts 172°
2026-04-21 12:52 48.01307 16.48419 9100 ft 295 kts 172°
2026-04-21 12:52 47.99265 16.48787 10083 ft 297 kts 175°
2026-04-21 12:52 47.97182 16.48678 10786 ft 304 kts 191°
2026-04-21 12:53 47.95164 16.47752 11570 ft 306 kts 206°
2026-04-21 12:53 47.93200 16.46276 11862 ft 328 kts 209°
2026-04-21 12:53 47.91093 16.44704 12189 ft 346 kts 204°
2026-04-21 12:53 47.88769 16.43644 12834 ft 355 kts 192°
2026-04-21 12:54 47.86300 16.43336 13631 ft 358 kts 179°
2026-04-21 12:54 47.83821 16.43825 14292 ft 363 kts 167°
2026-04-21 12:54 47.81368 16.44807 14957 ft 366 kts 166°
2026-04-21 12:54 47.78889 16.45847 15508 ft 374 kts 161°
2026-04-21 12:55 47.76592 16.47697 16130 ft 380 kts 142°
2026-04-21 12:55 47.74608 16.50325 16777 ft 383 kts 137°
2026-04-21 12:55 47.72661 16.53033 17493 ft 384 kts 137°
2026-04-21 12:55 47.70721 16.55766 18177 ft 386 kts 137°
2026-04-21 12:56 47.68758 16.58543 18619 ft 393 kts 137°
2026-04-21 12:56 47.66766 16.61352 19174 ft 396 kts 137°
2026-04-21 12:56 47.64756 16.64173 19651 ft 401 kts 137°
2026-04-21 12:56 47.62714 16.67023 20154 ft 404 kts 137°
2026-04-21 12:57 47.60657 16.69882 20714 ft 406 kts 138°
2026-04-21 12:57 47.58587 16.72740 21244 ft 409 kts 138°
2026-04-21 12:57 47.56502 16.75635 21765 ft 411 kts 137°
2026-04-21 12:57 47.54410 16.78548 22265 ft 415 kts 137°
2026-04-21 12:58 47.52302 16.81482 22783 ft 417 kts 137°
2026-04-21 12:58 47.50175 16.84433 23236 ft 421 kts 137°
2026-04-21 12:58 47.48032 16.87403 23710 ft 424 kts 138°
2026-04-21 12:58 47.45869 16.90396 24091 ft 427 kts 138°
2026-04-21 12:59 47.43694 16.93397 24531 ft 429 kts 138°
2026-04-21 12:59 47.42250 16.95386 24813 ft 430 kts 138°
2026-04-21 12:59 47.40054 16.98401 25200 ft 432 kts 138°
2026-04-21 12:59 47.37846 17.01429 25588 ft 435 kts 138°
2026-04-21 13:00 47.35626 17.04477 25939 ft 437 kts 138°
2026-04-21 13:00 47.33396 17.07542 26304 ft 440 kts 138°
2026-04-21 13:00 47.31153 17.10627 26666 ft 442 kts 138°
2026-04-21 13:00 47.28895 17.13728 27018 ft 445 kts 138°
2026-04-21 13:01 47.26623 17.16840 27369 ft 448 kts 138°
2026-04-21 13:01 47.24334 17.19964 27736 ft 450 kts 139°
2026-04-21 13:01 47.22030 17.23095 28084 ft 452 kts 139°
2026-04-21 13:01 47.19712 17.26241 28437 ft 455 kts 139°
2026-04-21 13:02 47.17381 17.29407 28780 ft 457 kts 139°
2026-04-21 13:02 47.15039 17.32591 29109 ft 460 kts 139°
2026-04-21 13:02 47.10319 17.39005 29720 ft 465 kts 139°
2026-04-21 13:03 47.07933 17.42235 29948 ft 469 kts 139°
2026-04-21 13:03 47.05524 17.45493 30173 ft 473 kts 139°
2026-04-21 13:03 47.03100 17.48768 30395 ft 475 kts 139°
2026-04-21 13:03 47.00660 17.52059 30635 ft 478 kts 139°
2026-04-21 13:04 46.98208 17.55359 30870 ft 480 kts 140°
2026-04-21 13:04 46.95741 17.58674 31089 ft 483 kts 140°
2026-04-21 13:04 46.93262 17.62001 31367 ft 483 kts 140°
2026-04-21 13:04 46.90784 17.65325 31685 ft 483 kts 140°
2026-04-21 13:05 46.88305 17.68648 31986 ft 484 kts 140°
2026-04-21 13:05 46.85823 17.71974 32293 ft 485 kts 140°
2026-04-21 13:05 46.83335 17.75302 32575 ft 485 kts 140°
2026-04-21 13:05 46.80838 17.78630 32784 ft 488 kts 140°
2026-04-21 13:06 46.78322 17.81968 32986 ft 490 kts 140°
2026-04-21 13:06 46.75807 17.85308 33053 ft 486 kts 140°
2026-04-21 13:06 46.70842 17.91902 33057 ft 481 kts 140°
2026-04-21 13:07 46.65897 17.98455 33051 ft 480 kts 140°
2026-04-21 13:07 46.60947 18.04983 33052 ft 480 kts 140°
2026-04-21 13:08 46.56002 18.11505 33013 ft 480 kts 140°
2026-04-21 13:08 46.51056 18.18018 33017 ft 480 kts 141°
2026-04-21 13:09 46.46093 18.24526 33019 ft 481 kts 141°
2026-04-21 13:09 46.41118 18.31041 33017 ft 482 kts 141°
2026-04-21 13:10 46.36130 18.37546 33029 ft 483 kts 141°
2026-04-21 13:10 46.31129 18.44037 33028 ft 483 kts 141°
2026-04-21 13:11 46.26117 18.50536 32708 ft 486 kts 142°
2026-04-21 13:11 46.23599 18.53802 32368 ft 487 kts 142°
2026-04-21 13:11 46.21077 18.57067 32032 ft 486 kts 142°
2026-04-21 13:12 46.18569 18.60313 31700 ft 484 kts 142°
2026-04-21 13:12 46.16067 18.63543 31359 ft 481 kts 142°
2026-04-21 13:12 46.13575 18.66756 31039 ft 480 kts 143°
2026-04-21 13:12 46.11087 18.69959 30717 ft 478 kts 143°
2026-04-21 13:13 46.08642 18.73100 30403 ft 476 kts 143°
2026-04-21 13:13 46.06175 18.76265 30085 ft 474 kts 143°
2026-04-21 13:13 46.03715 18.79415 29709 ft 472 kts 143°
2026-04-21 13:13 46.01275 18.82540 29308 ft 469 kts 144°
2026-04-21 13:14 45.98840 18.85652 28939 ft 468 kts 144°
2026-04-21 13:14 45.96414 18.88746 28578 ft 465 kts 144°
2026-04-21 13:14 45.93998 18.91813 28202 ft 461 kts 146°
2026-04-21 13:14 45.91430 18.94505 27617 ft 455 kts 154°
2026-04-21 13:15 45.88760 18.96943 26876 ft 455 kts 154°
2026-04-21 13:15 45.86083 18.99373 26152 ft 455 kts 154°
2026-04-21 13:15 45.83410 19.01798 25447 ft 455 kts 153°
2026-04-21 13:15 45.80740 19.04223 24759 ft 454 kts 153°
2026-04-21 13:16 45.78077 19.06644 24078 ft 453 kts 153°
2026-04-21 13:16 45.75434 19.09048 23634 ft 445 kts 154°
2026-04-21 13:16 45.72845 19.11407 23188 ft 438 kts 154°
2026-04-21 13:16 45.70296 19.13732 22717 ft 431 kts 154°
2026-04-21 13:17 45.67782 19.16016 22248 ft 425 kts 153°
2026-04-21 13:17 45.65298 19.18261 21786 ft 420 kts 153°
2026-04-21 13:17 45.62844 19.20470 21317 ft 415 kts 153°
2026-04-21 13:17 45.60412 19.22655 20856 ft 411 kts 152°
2026-04-21 13:18 45.58011 19.24828 20323 ft 409 kts 150°
2026-04-21 13:18 45.55724 19.27363 19331 ft 422 kts 143°
2026-04-21 13:18 45.53483 19.30050 18612 ft 418 kts 141°
2026-04-21 13:18 45.51301 19.32724 17845 ft 411 kts 141°
2026-04-21 13:19 45.49166 19.35364 17232 ft 401 kts 141°
2026-04-21 13:19 45.47087 19.37928 16765 ft 389 kts 141°
2026-04-21 13:19 45.45058 19.40416 16291 ft 382 kts 141°
2026-04-21 13:19 45.43045 19.42865 15804 ft 380 kts 142°
2026-04-21 13:20 45.41036 19.45296 15318 ft 378 kts 142°
2026-04-21 13:20 45.39032 19.47711 14840 ft 377 kts 142°
2026-04-21 13:20 45.37036 19.50112 14364 ft 375 kts 142°
2026-04-21 13:20 45.35049 19.52501 13876 ft 373 kts 141°
2026-04-21 13:21 45.33072 19.54880 13387 ft 370 kts 141°
2026-04-21 13:21 45.31119 19.57232 12886 ft 367 kts 141°
2026-04-21 13:21 45.29185 19.59560 12441 ft 362 kts 141°
2026-04-21 13:21 45.27269 19.61868 11949 ft 359 kts 141°
2026-04-21 13:22 45.25371 19.64152 11463 ft 357 kts 141°
2026-04-21 13:22 45.23493 19.66404 10984 ft 353 kts 141°
2026-04-21 13:22 45.21647 19.68609 10557 ft 349 kts 141°
2026-04-21 13:22 45.19803 19.70806 10243 ft 341 kts 141°
2026-04-21 13:23 45.18020 19.72930 10118 ft 328 kts 141°
2026-04-21 13:23 45.16306 19.74976 9994 ft 317 kts 141°
2026-04-21 13:23 45.14651 19.76955 9842 ft 306 kts 141°
2026-04-21 13:23 45.13047 19.78872 9292 ft 299 kts 140°
2026-04-21 13:24 45.11466 19.80764 8638 ft 296 kts 140°
2026-04-21 13:24 45.09904 19.82631 8011 ft 292 kts 140°
2026-04-21 13:24 45.08358 19.84470 7510 ft 291 kts 140°
2026-04-21 13:24 45.06811 19.86306 7133 ft 289 kts 140°
2026-04-21 13:25 45.05267 19.88134 6652 ft 291 kts 140°
2026-04-21 13:25 45.03727 19.89956 6232 ft 290 kts 140°
2026-04-21 13:25 45.02194 19.91773 5789 ft 283 kts 140°
2026-04-21 13:25 45.00697 19.93550 5358 ft 275 kts 140°
2026-04-21 13:26 44.99285 19.95224 5285 ft 257 kts 140°
2026-04-21 13:26 44.97945 19.96810 5189 ft 245 kts 140°
2026-04-21 13:26 44.96661 19.98330 5087 ft 238 kts 140°
2026-04-21 13:26 44.95478 19.99941 4984 ft 236 kts 126°
2026-04-21 13:27 44.94600 20.01869 4795 ft 232 kts 119°
2026-04-21 13:27 44.93776 20.03835 4506 ft 233 kts 120°
2026-04-21 13:27 44.92927 20.05793 4186 ft 235 kts 120°
2026-04-21 13:27 44.92068 20.07749 3865 ft 233 kts 121°
2026-04-21 13:28 44.91221 20.09673 3548 ft 229 kts 120°
2026-04-21 13:28 44.90388 20.11566 3252 ft 225 kts 121°
2026-04-21 13:28 44.89570 20.13424 2937 ft 221 kts 121°
2026-04-21 13:28 44.88763 20.15257 2631 ft 219 kts 121°
2026-04-21 13:29 44.87968 20.17060 2351 ft 214 kts 121°
2026-04-21 13:29 44.87191 20.18821 2080 ft 209 kts 121°
2026-04-21 13:29 44.86444 20.20515 1767 ft 197 kts 122°
2026-04-21 13:29 44.85746 20.22097 1546 ft 182 kts 122°
2026-04-21 13:30 44.85113 20.23529 1300 ft 164 kts 122°
2026-04-21 13:30 44.84537 20.24833 1069 ft 150 kts 122°
2026-04-21 13:30 44.84001 20.26048 859 ft 142 kts 122°
2026-04-21 13:30 44.83487 20.27203 695 ft 137 kts 121°
2026-04-21 13:31 44.82992 20.28331 484 ft 134 kts 121°
2026-04-21 13:31 44.82501 20.29436 329 ft 131 kts 123°
2026-04-21 13:31 44.82072 20.30399 306 ft 95 kts 122°
2026-04-21 13:31 44.81802 20.31008 307 ft 56 kts 122°
2026-04-21 13:32 44.81648 20.31278 305 ft 29 kts 144°
2026-04-21 13:32 44.81499 20.31392 306 ft 23 kts 152°
2026-04-21 13:32 44.81374 20.31467 307 ft 16 kts 183°
2026-04-21 13:32 44.81324 20.31378 306 ft 11 kts 285°
2026-04-21 13:33 44.81375 20.31260 306 ft 18 kts 302°
2026-04-21 13:33 44.81453 20.31083 306 ft 24 kts 302°
2026-04-21 13:33 44.81549 20.30867 307 ft 27 kts 302°
2026-04-21 13:33 44.81650 20.30638 308 ft 28 kts 302°
2026-04-21 13:34 44.81756 20.30401 310 ft 29 kts 302°
2026-04-21 13:34 44.81858 20.30173 309 ft 28 kts 302°
2026-04-21 13:34 44.81960 20.29942 307 ft 28 kts 302°
2026-04-21 13:34 44.82057 20.29723 308 ft 23 kts 301°
2026-04-21 13:35 44.82116 20.29580 309 ft 11 kts 285°
2026-04-21 13:35 44.82072 20.29501 307 ft 12 kts 212°
2026-04-21 13:35 44.81992 20.29432 307 ft 14 kts 212°
2026-04-21 13:35 44.81912 20.29362 307 ft 13 kts 212°
2026-04-21 13:36 44.81834 20.29295 307 ft 13 kts 213°
2026-04-21 13:36 44.81792 20.29228 307 ft 7 kts 271°
2026-04-21 13:36 44.81812 20.29175 307 ft 3 kts 302°
2026-04-21 13:36 44.81814 20.29170 307 ft 0 kts 302°